Regional Weather Roundup
Issued by NWS Grand Forks, ND

Home | Current Version | Previous Version | Graphics & Text | Print | Product List | Glossary On
Versions: 1 2 3 4 5 6 7 8 9 10 11 12 13 14 15 16 17 18 19 20 21 22 23 24 25 26 27 28 29 30 31 32 33 34 35 36 37 38 39 40 41 42 43 44 45 46 47 48 49 50
000
ASUS43 KFGF 200931
RWRFGF
PRAIRIE TO PINES  WEATHER ROUNDUP
NATIONAL WEATHER SERVICE EASTERN NORTH DAKOTA/GRAND FORKS ND
400 AM CDT MON OCT 20 2014

 **SATELLITE DATA USED TO AUGMENT SKY COVER AT AUTOMATED STATIONS**
 *****  WEATHER ACROSS EASTERN NORTH DAKOTA  *****

CITY           SKY/WX    TMP DP  RH WIND       PRES   REMARKS
GRAND FORKS    CLEAR     41  37  86 NW7       29.99R
GRAND FRKS AFB CLEAR     42  38  88 N6        30.00R
GRAND FRKS NWS   N/A     41 N/A N/A NW5         N/A
DEVILS LAKE    CLEAR     37  28  70 CALM      30.00R
FARGO          CLEAR     41  35  79 NW3       29.98R
WAHPETON ARPT  SUNNY     36  32  87 N3        29.99R
$$

 ***** WEATHER ACROSS CENTRAL AND WESTERN NORTH DAKOTA  *****

CITY           SKY/WX    TMP DP  RH WIND       PRES   REMARKS
BISMARCK       MOCLDY    32  31  96 CALM      30.05S
MINOT          MOCLDY    45  34  65 SW12      30.00S
JAMESTOWN      CLEAR     41  36  82 W7        30.01R
MINOT AFB      MOCLDY    42  36  79 W6        29.99S
GARRISON         N/A     36  31  82 CALM      30.02S
WILLISTON      CLEAR     34  31  88 CALM      29.99S
DICKINSON      CLEAR     39  33  79 S10       30.01F
HETTINGER      CLEAR     30  27  88 CALM      30.06S
$$

 *****  OTHER AIRPORT OBSERVATIONS IN OUR AREA  *****

CITY           SKY/WX    TMP DP  RH WIND       PRES   REMARKS
WALHALLA       FAIR      39  39 100 NW3       30.02R
GRAFTON AIRPOR FAIR      41  39  93 N9        30.00R
VALLEY CITY AR FAIR      39  39 100 NW9       30.00S
CANDO          FAIR      34  32  93 N8        30.02R
CAVALIER APRT  FAIR      41  39  93 N5        30.01R
GWINNER        SUNNY     48  37  66 NW8       30.01S
ROLLA          FAIR      32  30  93 CALM      30.03R
 ***** THE ABOVE OBSERVATIONS ARE NON NWS ARE NOT QUALITY
       CONTROLLED AND MAY MIS-REPORT RAIN FOR SNOW...
$$

  *****  WEATHER ACROSS NORTHERN MINNESOTA  *****

CITY           SKY/WX    TMP DP  RH WIND       PRES   REMARKS
FLAG ISLAND    MOCLDY    43  39  87 NW14      29.94R
WARROAD        PTCLDY    39  36  87 NW7       29.96R
ROSEAU         PTCLDY    39  34  81 W5        29.97R
HALLOCK        CLEAR     37  36  93 NW6       30.00R
THF RVR FALLS  CLEAR     41  37  87 N5        29.98R
BAUDETTE       CLEAR     43  40  89 NW8       29.93R
WASKISH        CLEAR     43  39  87 CALM      29.94R
CROOKSTON      CLEAR     37  36  93 N8        29.99R
STEPHEN NDAWN    N/A     37  36  93 N6          N/A
GREENBUSH NDAW   N/A     39  37  93 NW5         N/A
$$
  *****  WEATHER ACROSS CENTRAL AND WEST MINNESOTA  *****

CITY           SKY/WX    TMP DP  RH WIND       PRES   REMARKS
FOSSTON        CLEAR     36  34  93 NW6       29.97R
BEMIDJI        CLEAR     37  36  94 NW6       29.94R
PARK RAPIDS    CLEAR     40  37  89 NW6       29.93R
ELBOW LAKE     FAIR      40  36  85 NW6       29.97R
WADENA         CLEAR     43  39  87 W6        29.95R
DETROIT LAKES  FAIR      43  39  87 NW8       29.98R
MOORHEAD       CLEAR     43  41  93 CALM      29.99R
FERGUS FALLS   CLEAR     37  32  81 NW3       29.99R
MORRIS MN      CLEAR     37  36  93 W8        29.97R
STAPLES        CLEAR     43  39  87 N6        29.94R
$$
  *****  WEATHER ELSEWHERE ACROSS MINNESOTA  *****

CITY           SKY/WX    TMP DP  RH WIND       PRES   REMARKS
DULUTH         CLEAR     46  40  79 NW9       29.85R
INTRNTL FALLS  CLEAR     30  29  96 CALM      29.88S
ELY            CLOUDY    46  39  76 NW5       29.86R
CLOQUET        CLEAR     45  39  81 NW7       29.88R
WHEATON        CLEAR     41  36  81 W5        30.01R
BRAINERD       CLEAR     44  40  85 N3        29.92R
HIBBING        CLEAR     38  35  89 CALM      29.88R
ALEXANDRIA     CLEAR     45  39  79 NW6       29.97R
SAINT CLOUD    CLEAR     48  41  76 NW3       29.91S
MINNEAPOLIS    PTCLDY    49  41  74 NW3       29.91S
$$

  *****  WEATHER ACROSS SOUTH DAKOTA  *****

CITY           SKY/WX    TMP DP  RH WIND       PRES   REMARKS
SIOUX FALLS    CLEAR     40  36  86 CALM      30.02R
BROOKINGS      NOT AVBL
WATERTOWN      CLEAR     38  34  85 CALM      30.01S
HURON          CLEAR     36  32  85 NW3       30.04S
SISSETON         N/A     43  36  76 NW7       29.98S
ABERDEEN       CLEAR     36  32  85 CALM      30.03R
MITCHELL       CLEAR     45  37  73 W6        30.05R
PIERRE         CLEAR     41  35  79 CALM      30.06R
MOBRIDGE       PTCLDY    37  35  92 N5        30.04R
RAPID CITY     CLEAR     39  35  86 CALM      30.08S
$$

  *****  SOME WEATHER IN NEARBY STATES *****

CITY           SKY/WX    TMP DP  RH WIND       PRES   REMARKS
GLASGOW MT     CLEAR     45  36  70 E15       29.89F
GREAT FALLS MT CLEAR     54  29  38 SW14      29.87F
CHEYENNE WY    CLEAR     43  33  68 W6        30.19F
SCOTTSBLUFF NE CLEAR     37  35  92 NW6       30.13S
OMAHA NE       CLEAR     47  45  93 NW7       29.98S
DES MOINES IA  CLEAR     52  45  77 N8        29.94S
DAVENPORT IA   CLEAR     48  42  80 W9        29.86S
CHICAGO IL     PTCLDY    50  43  77 SW12G18   29.82F
EAU CLAIRE WI  CLEAR     48  41  76 W3        29.86R
LA CROSSE WI   CLEAR     47  41  80 NW7       29.85R
$$

  *****  SOME NATIONAL WEATHER *****

CITY           SKY/WX    TMP DP  RH WIND       PRES   REMARKS
LA GUARDIA NY  MOCLDY    44  29  55 W9        30.09R
RALEIGH NC     PTCLDY    43  40  89 CALM      30.13S
ATLANTA GA     CLEAR     52  46  80 CALM      30.10S
NEW ORLEANS LA CLEAR     59  55  87 CALM      30.03F
OKLAHOMA CITY  PTCLDY    56  51  84 S7        30.04S
ALBUQUERQUE NM PTCLDY    52  41  66 S8        30.18R
SALT LAKE CITY CLEAR     51  39  63 SE9       30.02S
LOS ANGELES CA PTCLDY    66  62  87 SW3       29.89S
BOISE ID       CLEAR     58  30  34 SE12      29.87R
SEATTLE WA     LGT RAIN  59  56  89 SE6       29.73R
$$

*** WEATHER ACROSS MANITOBA...SASKATCHEWAN AND ONTARIO ***
                ***ONTARIO***

CITY           SKY/WX    TMP DP  RH WIND       PRES   REMARKS
GERALDTON      FOG       37  37 100 NW2       29.74S VSB 0
THUNDER BAY    CLOUDY    46  43  87 W3        29.80R
SIOUX LOOKOUT  DRIZZLE   43  41  93 NW10      29.87R
TORONTO        CLOUDY    43  37  81 S7        29.92F
BIG TROUT LK   FOG       32  32 100 N7        29.93R VSB 3/4
PICKLE LAKE    NOT AVBL
DRYDEN         CLOUDY    43  39  87 N7        29.88R
KENORA         MOCLDY    45  41  87 N5        29.93R
$$
                *** MANITOBA***

CITY           SKY/WX    TMP DP  RH WIND       PRES   REMARKS
BRANDON        CLEAR     30  28  93 NE3       30.03R
DAUPHIN        CLEAR     30  30 100 W6        30.01S WCI  24
ISLAND LAKE    DRIZZLE   36  34  93 N5        30.01R
PILOT MOUND      N/A     37  36  93 N3          N/A
THE PAS        CLOUDY    43  39  87 SE7       29.99F
THOMPSON       DRIZZLE   34  34 100 NE5       30.02F FOG
WINNIPEG       MOCLDY    39  37  93 N8        30.03R
LYNN LAKE      CLOUDY    36  34  93 S5        29.99R
CHURCHILL      CLOUDY    34  34 100 N9        30.01R
GILLAM         CLOUDY    36  32  87 N7        30.02R
$$
                ***SASKATCHEWAN***

CITY           SKY/WX    TMP DP  RH WIND       PRES   REMARKS
ESTEVAN        CLEAR     39  36  87 SE6       29.98S
KINDERSLEY     PTCLDY    45  37  76 S10       29.74F
LLOYDMINSTER   NOT AVBL
PRINCE ALBERT  CLEAR     37  36  93 E9        29.81F
REGINA         CLEAR     37  36  93 E10       29.93S
YORKTON        CLEAR     41  36  81 S9        29.95F
N. BATTLEFORD  CLEAR     46  37  71 SE14      29.74F
LA RONGE       CLEAR     43  41  93 E7        29.85S
SASKATOON      CLEAR     45  39  81 S9        29.80F
SWIFT CURRENT  CLEAR     48  41  76 S17       29.81F
$$
NOTE: THESE ARE AUTOMATED STATIONS WITH LIMITED QUALITY CONTROL
      "FAIR" INDICATES FEW OR NO CLOUDS BELOW 12,000 FEET WITH NO
      SIGNIFICANT WEATHER AND/OR OBSTRUCTIONS TO VISIBILITY.
      SKY/WX - SKY CONDITION AND SIGNIFICANT WEATHER.
      TMP - AIR TEMPERATURE.    DP   - DEWPOINT TEMPERATURE.
      RH  - RELATIVE HUMIDITY.  PRES - PRESSURE.
      HX  - HEAT INDEX.         WCI  - WIND CHILL INDEX.
$


USA.gov is the U.S. government's official web portal to all federal, state and local government web resources and services.